Location: Northcutt
(34.7304°N, 84.4305°W)
Time: 18:04:03
(UTC+00:00)

SR - Pass Details

Date: 14 October 2022
Orbit: 577 x 874 km, 66.7° (Epoch: 05 December)

Event Time Altitude Azimuth Distance (km) Brightness Sun altitude
Rises 00:48:47 0° 248° (WSW) 3,442 ? -22.0°
Reaches altitude 10° 00:52:00 10° 266° (W) 2,520 ? -22.7°
Maximum altitude 00:56:05 19° 310° (NW) 1,951 ? -23.5°
Drops below altitude 10° 01:00:10 10° 354° (N) 2,508 ? -24.3°
Sets 01:03:24 0° 12° (NNE) 3,419 ? -25.0°
